EW1119 Weather Reports


Display with metric or nautical units.
time (UTC)temp
F
wind
direction
speed
MPH
gust
MPH
rain 1hr
in
rain 24hr
in
rain mn
in
humidity
%
barometer
mb
20220627113101 83 150 4.0 6.0 0.00 0.05 0.00 81 1016.7
20220627111602 82 158 2.0 5.0 0.00 0.05 0.00 83 1016.5
20220627110055 81 157 2.0 5.0 0.00 0.05 0.00 82 1016.3
20220627104559 81 166 3.0 8.0 0.00 0.05 0.00 83 1016.3
20220627103051 81 162 5.0 8.0 0.00 0.05 0.00 85 1016.1
20220627101551 81 156 5.0 9.0 0.00 0.05 0.00 84 1016.2
20220627100049 81 146 4.0 8.0 0.00 0.05 0.00 85 1016.2
20220627094549 81 139 5.0 8.0 0.00 0.05 0.00 85 1016.1
20220627093051 81 142 5.0 8.0 0.00 0.05 0.00 86 1016.1
20220627091547 81 151 5.0 8.0 0.00 0.05 0.00 87 1016.1
20220627090043 81 156 4.0 7.0 0.00 0.05 0.00 86 1016.1
20220627084542 81 155 3.0 7.0 0.00 0.05 0.00 86 1016.0
20220627083040 81 150 4.0 6.0 0.00 0.05 0.00 86 1016.1
20220627081539 81 136 3.0 5.0 0.00 0.05 0.05 86 1016.0
20220627080039 81 148 3.0 6.0 0.00 0.05 0.05 86 1016.0
20220627074539 81 144 3.0 5.0 0.00 0.05 0.05 86 1016.1
20220627073038 81 150 2.0 5.0 0.00 0.05 0.05 86 1016.0
20220627071540 81 130 5.0 7.0 0.00 0.05 0.05 86 1016.2
20220627070037 81 157 4.0 6.0 0.00 0.05 0.05 87 1016.3
20220627064548 80 139 2.0 6.0 0.00 0.05 0.05 89 1016.4
20220627063044 80 143 2.0 4.0 0.00 0.05 0.05 89 1016.7
20220627061547 80 304 0.0 1.0 0.00 0.05 0.05 90 1016.7
20220627060044 80 304 1.0 2.0 0.00 0.05 0.05 90 1016.8
20220627054536 80 309 2.0 3.0 0.00 0.05 0.05 88 1016.8
20220627053035 81 185 1.0 6.0 0.01 0.05 0.05 87 1017.3
20220627051546 81 158 3.0 9.0 0.05 0.05 0.05 87 1017.4
20220627050039 81 179 3.0 7.0 0.05 0.05 0.05 87 1017.7
20220627044534 81 151 5.0 8.0 0.05 0.05 0.05 86 1017.7
20220627043033 82 177 5.0 9.0 0.04 0.04 0.04 86 1017.8
20220627041532 82 188 5.0 11.0 0.00 0.00 0.00 85 1017.6
20220627040032 83 173 5.0 10.0 0.00 0.00 0.00 85 1017.5
20220627034545 83 166 6.0 9.0 0.00 0.00 0.00 84 1017.8
20220627033033 83 160 5.0 10.0 0.00 0.00 0.00 85 1017.8
20220627031535 83 155 5.0 8.0 0.00 0.00 0.00 85 1017.5
20220627030034 83 178 5.0 8.0 0.00 0.00 0.00 84 1017.5
20220627024530 83 156 4.0 7.0 0.00 0.00 0.00 84 1017.4
20220627023031 83 137 4.0 7.0 0.00 0.00 0.00 84 1017.3
20220627021631 82 163 4.0 7.0 0.00 0.00 0.00 85 1017.4
20220627020029 82 163 3.0 8.0 0.00 0.00 0.00 85 1017.3
20220627014532 82 205 4.0 6.0 0.00 0.00 0.00 85 1017.0
20220627013029 83 188 3.0 7.0 0.00 0.00 0.00 84 1016.9
20220627011529 83 158 4.0 6.0 0.00 0.00 0.00 84 1016.9
20220627010030 83 153 4.0 6.0 0.00 0.00 0.00 84 1016.8
20220627004528 83 163 3.0 7.0 0.00 0.00 0.00 84 1016.8
20220627003026 83 175 4.0 6.0 0.00 0.00 0.00 83 1016.7
20220627001526 83 157 4.0 6.0 0.00 0.00 0.00 82 1016.7
20220627000028 83 151 2.0 6.0 0.00 0.00 0.00 82 1016.7
20220626234526 83 143 4.0 6.0 0.00 0.00 0.00 82 1016.4
20220626233032 83 173 4.0 9.0 0.00 0.00 0.00 82 1016.2
20220626231525 83 154 5.0 9.0 0.00 0.00 0.00 82 1016.1
20220626230027 83 155 6.0 8.0 0.00 0.00 0.00 81 1015.8
20220626224528 84 150 4.0 8.0 0.00 0.00 0.00 81 1016.0
20220626223024 84 162 7.0 9.0 0.00 0.00 0.00 80 1015.8
20220626221533 84 165 5.0 7.0 0.00 0.45 0.00 81 1015.9
20220626220035 84 155 4.0 7.0 0.00 0.45 0.00 80 1015.8
20220626214522 85 150 4.0 8.0 0.00 0.45 0.00 80 1016.0
20220626213022 84 154 5.0 8.0 0.00 0.45 0.00 80 1016.0
20220626211521 85 145 4.0 8.0 0.00 0.46 0.00 79 1016.1
20220626210024 86 148 5.0 9.0 0.00 0.46 0.00 78 1016.1
20220626204521 86 147 5.0 9.0 0.00 0.46 0.00 79 1016.0
20220626203019 86 174 5.0 9.0 0.00 0.46 0.00 79 1016.0
20220626201528 86 132 6.0 10.0 0.00 0.46 0.00 79 1016.1
20220626200019 86 142 5.0 8.0 0.00 0.46 0.00 77 1016.0
20220626194520 86 147 7.0 9.0 0.00 0.46 0.00 78 1016.1
20220626193020 86 141 4.0 8.0 0.00 0.46 0.00 79 1016.4
20220626191519 87 141 3.0 9.0 0.00 0.46 0.00 77 1016.6
20220626190019 86 127 5.0 10.0 0.00 0.46 0.00 77 1016.4
20220626184516 87 138 5.0 9.0 0.00 0.46 0.00 75 1016.4
20220626183020 87 148 6.0 9.0 0.00 0.46 0.00 75 1016.2
20220626181516 87 136 6.0 11.0 0.00 0.46 0.00 74 1016.4
20220626180020 86 141 6.0 10.0 0.00 0.46 0.00 76 1016.3
20220626174518 86 150 6.0 11.0 0.00 0.46 0.00 76 1016.7
20220626173020 87 158 6.0 9.0 0.00 0.46 0.00 77 1016.9
20220626171520 87 143 6.0 10.0 0.00 0.46 0.00 77 1017.1
20220626170025 86 155 8.0 11.0 0.00 0.46 0.00 78 1017.0
20220626164512 86 157 7.0 11.0 0.00 0.46 0.00 77 1017.1
20220626163012 87 147 6.0 10.0 0.00 0.46 0.00 77 1017.4
20220626161516 87 149 6.0 9.0 0.00 0.46 0.00 76 1017.5
20220626160010 87 152 5.0 8.0 0.00 0.46 0.00 77 1017.6
20220626154513 87 162 5.0 8.0 0.00 0.46 0.00 78 1017.4
20220626153012 87 168 5.0 9.0 0.00 0.46 0.00 77 1017.5
20220626151512 87 150 4.0 7.0 0.00 0.46 0.00 77 1017.6
20220626150012 87 158 5.0 7.0 0.00 0.46 0.00 77 1017.7
20220626144509 86 152 4.0 7.0 0.00 0.46 0.00 78 1017.7
20220626143005 86 156 3.0 7.0 0.00 0.46 0.00 79 1017.5
20220626141511 86 166 3.0 7.0 0.00 0.46 0.00 80 1017.5
20220626140002 85 206 3.0 7.0 0.00 0.46 0.00 81 1017.4
20220626134601 86 212 2.0 6.0 0.00 0.46 0.00 82 1017.3
20220626133057 85 176 3.0 7.0 0.00 0.46 0.00 82 1017.2
20220626131600 85 181 2.0 4.0 0.00 0.46 0.00 82 1017.1
20220626130052 85 190 1.0 4.0 0.00 0.46 0.00 82 1017.0
20220626124556 85 149 2.0 3.0 0.00 0.46 0.00 83 1016.9
20220626123057 84 139 0.0 3.0 0.00 0.46 0.00 85 1016.8
20220626121546 83 289 0.0 0.0 0.00 0.46 0.00 88 1016.5
20220626120043 82 289 0.0 1.0 0.00 0.46 0.00 89 1016.5
20220626114541 80 289 0.0 2.0 0.00 0.46 0.00 91 1016.3